This is the latest recevied weather packets stored in our database for station/object KB2M. If no packets are shown the sender has not sent any weather packets the latest 10 day(s).
| Time | Temp. | Humidity | Pressure | Rain* | Wind** | Luminosity | Snow |
|---|---|---|---|---|---|---|---|
| 1777419133 | 23.33° C | 76% | 1019.6 hPa | 0 mm | - | - | - |
| 1777418533 | 23.89° C | 76% | 1019.6 hPa | 0 mm | - | - | - |
| 1777417903 | 23.89° C | 76% | 1019.9 hPa | 0 mm | - | - | - |
| 1777417273 | 23.33° C | 77% | 1019.9 hPa | 0 mm | - | - | - |
| 1777416643 | 23.89° C | 77% | 1019.9 hPa | 0 mm | - | - | - |
| 1777416013 | 23.89° C | 76% | 1020.3 hPa | 0 mm | - | - | - |
| 1777415413 | 23.89° C | 75% | 1020.3 hPa | 0 mm | - | - | - |
| 1777414783 | 23.89° C | 75% | 1020.3 hPa | 0 mm | - | - | - |
| 1777414183 | 24.44° C | 73% | 1020.3 hPa | 0 mm | - | - | - |
| 1777413582 | 24.44° C | 73% | 1020.3 hPa | 0 mm | - | - | - |
| 1777412982 | 24.44° C | 74% | 1020.6 hPa | 0 mm | - | - | - |
| 1777412382 | 24.44° C | 73% | 1020.3 hPa | 0 mm | - | - | - |
| 1777411781 | 25° C | 72% | 1020.6 hPa | 0 mm | - | - | - |
| 1777411181 | 24.44° C | 72% | 1020.9 hPa | 0 mm | - | - | - |
| 1777410581 | 24.44° C | 74% | 1020.9 hPa | 0 mm | - | - | - |
| 1777409981 | 24.44° C | 72% | 1021.3 hPa | 0 mm | - | - | - |
| 1777409381 | 25° C | 72% | 1020.9 hPa | 0 mm | - | - | - |
| 1777408780 | 25° C | 72% | 1021.3 hPa | 0 mm | - | - | - |
| 1777408180 | 24.44° C | 71% | 1021.3 hPa | 0 mm | - | - | - |
| 1777407580 | 25° C | 71% | 1021.6 hPa | 0 mm | - | - | - |
| 1777406979 | 24.44° C | 72% | 1021.6 hPa | 0 mm | - | - | - |
| 1777406379 | 25° C | 71% | 1021.6 hPa | 0 mm | - | - | - |
| 1777405779 | 25° C | 72% | 1021.6 hPa | 0 mm | - | - | - |
| 1777405179 | 24.44° C | 73% | 1022 hPa | 0 mm | - | - | - |
| 1777404578 | 25° C | 70% | 1022 hPa | 0 mm | - | - | - |
* Rain latest hour (hover to see other rain measurements)
** Current wind speed in m/s (hover to see current wind gust speed)